Regional Weather Roundup
Issued by NWS

Home | Current Version | Previous Version | Graphics & Text | Print | Product List | Glossary Off
Versions: 1 2 3 4 5 6 7 8 9 10 11 12 13 14 15 16 17 18 19 20 21 22 23 24 25 26 27 28 29 30 31 32 33 34 35 36 37 38 39 40 41 42 43 44 45 46 47 48 49 50

029
ASUS43 KDMX 011801
RWRIA

WEATHER ROUNDUP FOR IOWA
NATIONAL WEATHER SERVICE DES MOINES IA
1200 PM CST WED MAR 01 2017

NOTE: "FAIR" INDICATES FEW OR NO CLOUDS BELOW 12,000 FEET WITH NO
SIGNIFICANT WEATHER AND/OR OBSTRUCTIONS TO VISIBILITY.

* - THESE STATIONS ARE NOT NWS STATIONS...THUS NOT UNDER NWS
QUALITY CONTROL.  THEY ALSO DO NOT REPORT WEATHER SUCH
AS PRECIPITATION OR FOG.

IAZ001>003-012>014-020>022-031>034-043>046-011900-
   NORTHWEST IOWA

CITY           SKY/WX    TMP DP  RH WIND       PRES   REMARKS
CARROLL *      PTSUNNY   37  32  81 NW24G30   30.01R WCI  26
CHEROKEE *     SUNNY     31  25  77 NW15G24   30.04R WCI  21
DENISON *      CLOUDY    36  28  75 NW17G26   30.02R WCI  25
LE MARS *      SUNNY     32  25  74 NW16      30.07R WCI  21
SHELDON *      SUNNY     28  28 100 NW20G26   30.00R WCI  15
SIOUX CITY     MOSUNNY   37  27  67 NW15      30.08R WCI  28
6HR MIN TEMP:  31; 6HR MAX TEMP:  38; 6HR PCP: TRACE;

SPENCER        PTSUNNY   34  27  75 NW20      29.99R WCI  23
6HR MIN TEMP:  30; 6HR MAX TEMP:  35; 6HR PCP: TRACE;

STORM LAKE *   MOSUNNY   30  27  86 NW20      30.01R WCI  18
$$

IAZ055>058-069>071-079>083-090>094-011900-
   SOUTHWEST IOWA

CITY           SKY/WX    TMP DP  RH WIND       PRES   REMARKS
ATLANTIC *     CLOUDY    36  30  80 NW14G23   30.05R WCI  27
AUDUBON *      PTSUNNY   36  30  80 NW14G20   30.03R WCI  27
CLARINDA *     CLOUDY    39  30  70 N18       30.10R WCI  30
COUNCIL BLFS * PTSUNNY   37  28  70 NW16G28   30.08R WCI  28
CRESTON *      CLOUDY    36  28  75 NW23G32   30.04R WCI  24
HARLAN  *      CLOUDY    36  32  87 NW18G28   30.09R WCI  25
LAMONI         CLOUDY    37  27  67 NW22G30   30.02R WCI  26
6HR MIN TEMP:  35; 6HR MAX TEMP:  37;

RED OAK *      CLOUDY    39  28  65 NW17G28   30.08R WCI  30
SHENANDOAH *   MOSUNNY   41  28  60 NW20G28   30.10R
$$

IAZ047>049-059>061-072>074-084-011900-
   CENTRAL IOWA

CITY           SKY/WX    TMP DP  RH WIND       PRES   REMARKS
AMES           CLOUDY    35  29  78 NW21G30   29.97R WCI  24
6HR MIN TEMP:  33; 6HR MAX TEMP:  35; 6HR PCP: TRACE;

ANKENY *       CLOUDY    36  28  75 NW22G29   29.99R WCI  24
BOONE *        CLOUDY    34  30  86 NW21G28   29.96R WCI  22
CHARITON *     CLOUDY    36  30  80 NW18G26   29.98R WCI  25
DES MOINES     CLOUDY    38  29  70 NW22G28   29.98R WCI  27
6HR MIN TEMP:  35; 6HR MAX TEMP:  39; 6HR PCP: TRACE;

GRINNELL*      CLOUDY    35  31  84 NW22G35   29.93R WCI  23
KNOXVILLE *    CLOUDY    37  30  75 NW16      29.94R WCI  28
MARSHALLTOWN   CLOUDY    35  30  82 NW23G33   29.91R WCI  23
6HR MIN TEMP:  32; 6HR MAX TEMP:  35; 6HR PCP: TRACE;

NEWTON *       CLOUDY    34  30  86 NW20G28   29.94R WCI  22
PELLA *        CLOUDY    37  31  79 NW17G28   29.96R WCI  27
PERRY *        CLOUDY    36  31  83 NW15G26   30.00R WCI  27
$$

IAZ004>006-015-016-023>025-035-036-011900-
   NORTH CENTRAL IOWA

CITY           SKY/WX    TMP DP  RH WIND       PRES   REMARKS
ALGONA *       PTSUNNY   34  27  75 NW22      29.95R WCI  22
CLARION *      CLOUDY    32  32 100 NW22G28   29.94R WCI  19
ESTHERVILLE    MOSUNNY   33  26  75 N20       29.95R WCI  21
6HR MIN TEMP:  29; 6HR MAX TEMP:  34;

FORT DODGE *   CLOUDY    34  27  75 NW12G20   29.98R WCI  25
MASON CITY     CLOUDY    32  27  81 NW24      29.91R WCI  19
6HR MIN TEMP:  28; 6HR MAX TEMP:  32; 6HR PCP: TRACE;

FOREST CITY *  CLOUDY    32  32 100 NW20G25   29.91R WCI  20
WEBSTER CITY * CLOUDY    34  28  80 NW22G32   29.94R WCI  22
IOWA FALLS *   CLOUDY    34  30  86 NW21G33   29.93R WCI  23
$$

IAZ007>011-017>019-026>030-037>042-050>054-066-011900-
   NORTHEAST IOWA

CITY           SKY/WX    TMP DP  RH WIND       PRES   REMARKS
CEDAR RAPIDS   CLOUDY    34  30  85 NW32G40   29.83R WCI  20
6HR MIN TEMP:  33; 6HR MAX TEMP:  35; 6HR PCP: TRACE;

CHARLES CITY * CLOUDY    32  30  93 NW24G31   29.88R WCI  19
CLINTON *      LGT RAIN  36  31  82 W33G39    29.73R WCI  22
DECORAH *      LGT SNOW  28  27  93 NW14G32   29.80R WCI  17
DUBUQUE        CLOUDY    33  28  81 NW23G30   29.73R WCI  21
6HR MIN TEMP:  32; 6HR MAX TEMP:  38; 6HR PCP:  0.02;

MONTICELLO *   LGT SNOW  34  30  86 NW23G35   29.78R WCI  22
OELWEIN *      FLURRIES  32  30  93 NW29G36   29.83R WCI  18
WATERLOO       CLOUDY    34  28  79 NW25G33   29.86R WCI  21
6HR MIN TEMP:  31; 6HR MAX TEMP:  34; 6HR PCP: TRACE;

$$

IAZ064-065-067-068-078-011900-
   EAST CENTRAL IOWA

CITY           SKY/WX    TMP DP  RH WIND       PRES   REMARKS
DAVENPORT      CLOUDY    36  31  82 W29G37    29.78R WCI  23
6HR MIN TEMP:  35; 6HR MAX TEMP:  40; 6HR PCP:  0.03;

IOWA CITY      CLOUDY    38  28  67 NW25G37   29.85R WCI  27
6HR MIN TEMP:  36; 6HR MAX TEMP:  38; 6HR PCP: TRACE;

MUSCATINE *    CLOUDY    37  30  75 NW26G36   29.84R WCI  26
QUAD CITIES    CLOUDY    38  31  76 W20       29.77R WCI  28
6HR MIN TEMP:  37; 6HR MAX TEMP:  43; 6HR PCP:  0.01;

$$

IAZ062-063-075>077-085>089-095>099-011900-
   SOUTHEAST IOWA

CITY           SKY/WX    TMP DP  RH WIND       PRES   REMARKS
BURLINGTON     CLOUDY    40  33  76 W20G29    29.85R WCI  30
6HR MIN TEMP:  38; 6HR MAX TEMP:  41;

FAIRFIELD *    CLOUDY    39  30  70 W22G36    29.90R WCI  29
FORT MADISON * CLOUDY    39  34  81 W22G37    29.89R WCI  29
KEOKUK *       CLOUDY    41  34  75 W22G29    29.90R
OTTUMWA        CLOUDY    39  30  70 NW24G36   29.92R WCI  28
6HR MIN TEMP:  37; 6HR MAX TEMP:  39; 6HR PCP: TRACE;

WASHINGTON *   CLOUDY    37  32  81 W31G40    29.88R WCI  25
$$

ABBREVIATIONS USED IN REMARKS
   TC - TEMPERATURES IN CELSIUS
  WCI - WIND CHILL INDEX
   HX - HEAT INDEX
  VSB - VISIBILITY
$$





USA.gov is the U.S. government's official web portal to all federal, state and local government web resources and services.